Location: ??????
(56.0120°N, 39.1740°E)
Time: 21:37:14
(UTC+00:00)

Meteor 2-3 Rocket - Pass Details

Date: 14 April 2026
Orbit: 845 x 880 km, 81.2° (Epoch: 13 May)

Event Time Altitude Azimuth Distance (km) Brightness Sun altitude
Rises 21:29:49 0° 342° (NNW) 3,437 8.0 -24.3°
Reaches altitude 10° 21:32:22 10° 336° (NNW) 2,492 7.0 -24.3°
Maximum altitude 21:37:37 42° 267° (W) 1,199 4.4 -24.3°
Enters shadow 21:38:27 39° 245° (WSW) 1,246 4.3 -24.3°
